Location: Newark
(44.1667°N, 8.2500°E)
Time: 02:42:14
(UTC+00:00)

Vanguard 2 - Pass Details

Date: 12 December 2019
Orbit: 553 x 2938 km, 32.9° (Epoch: 23 January)

Event Time Altitude Azimuth Distance (km) Brightness Sun altitude
Exits shadow 02:25:20 56° 172° (S) 3,311 10.4 -46.8°
Drops below altitude 10° 02:41:28 10° 104° (ESE) 5,408 12.3 -44.0°
Sets 02:45:21 0° 100° (E) 6,211 12.9 -43.3°
